Weather History for KLCH - April, 2014

Change the Weather History Date:

Friday, April 4, 2014

  Actual Average Record
Temperature  
Mean Temperature 70 °F 65 °F  
Max Temperature 78 °F 76 °F 88 °F (1914)
Min Temperature 61 °F 55 °F 35 °F (1915)
Degree Days  
Heating Degree Days 0 3  
Month to date heating degree days 0 12  
Since 1 July heating degree days 1901 1456  
Cooling Degree Days 5 3  
Month to date cooling degree days 31 12  
Year to date cooling degree days 59 84  
Growing Degree Days 20 (Base 50)    
Moisture  
Dew Point 61 °F    
Average Humidity 68    
Maximum Humidity 93    
Minimum Humidity 43    
Precipitation  
Precipitation 0.15 in 0.11 in 2.01 in (1952)
Month to date precipitation 0.15 0.42  
Year to date precipitation 9.01 12.77  
Snow  
Snow 0.00 in 0.00 in 0.00 in ()
Month to date snowfall 0.0 0.0  
Since 1 July snowfall 0.1 0.1  
Snow Depth 0.00 in    
Sea Level Pressure  
Sea Level Pressure 29.94 in    
Wind  
Wind Speed 11 mph (NNW)    
Max Wind Speed 23 mph    
Max Gust Speed 33 mph    
Visibility 8 miles    
Events Rain , Thunderstorm    
T = Trace of Precipitation, MM = Missing Value Source: NWS Daily Summary

Daily Weather History Graph

Daily Weather History Graph

Search for Another Location

Airport or City:

Trip Planner

Search our weather history database for the weather conditions in past years. The results will help you decide how hot, cold, wet, or windy it might be!

Date:

Astronomy

Apr. 04, 2014 Rise Set
Actual Time 6:58 AM CDT 7:33 PM CDT
Civil Twilight 6:34 AM CDT 7:57 PM CDT
Nautical Twilight 6:06 AM CDT 8:26 PM CDT
Astronomical Twilight 5:37 AM CDT 8:55 PM CDT
Moon 10:31 AM CDT (4/4) No Moon Set
Length of Visible Light 13h 23m
Length of Day
12h 34m
Waxing Crescent, 25% of the Moon is Illuminated
Apr 4
Waxing Crescent
Apr 7
First Quarter
Apr 15
Full
Apr 22
Last Quarter
Apr 29
New

Hourly Weather History & Observations

Time (CDT) Temp. Dew Point Humidity Pressure Visibility Wind Dir Wind Speed Gust Speed Precip Events Conditions
12:53 AM 72.0 °F 70.0 °F 93% 29.89 in 8.0 mi South 8.1 mph - N/A   Overcast
1:53 AM 72.0 °F 70.0 °F 93% 29.88 in 6.0 mi SSW 9.2 mph - N/A   Overcast
2:00 AM 72.0 °F 70.0 °F 93% 29.86 in 5.0 mi SSW 8.1 mph - N/A   Overcast
2:53 AM 72.0 °F 70.0 °F 93% 29.86 in 5.0 mi South 10.4 mph - N/A   Overcast
3:13 AM 71.1 °F 70.0 °F 96% 29.82 in 6.0 mi South 13.8 mph 20.7 mph N/A   Overcast
3:53 AM 72.0 °F 70.0 °F 93% 29.87 in 6.0 mi SSW 10.4 mph 17.3 mph N/A   Overcast
4:18 AM 72.0 °F 70.0 °F 93% 29.81 in 5.0 mi South 12.7 mph 17.3 mph N/A   Overcast
4:53 AM 72.0 °F 70.0 °F 93% 29.83 in 6.0 mi South 11.5 mph 20.7 mph N/A   Overcast
5:07 AM 71.1 °F 70.0 °F 96% 29.83 in 6.0 mi SW 9.2 mph - N/A   Overcast
5:53 AM 72.0 °F 70.0 °F 93% 29.88 in 6.0 mi SW 8.1 mph - N/A   Overcast
6:04 AM 72.0 °F 69.1 °F 91% 29.87 in 7.0 mi SW 8.1 mph - N/A   Overcast
6:46 AM 72.0 °F 69.1 °F 91% 29.87 in 7.0 mi SSW 9.2 mph - N/A Thunderstorm Overcast
6:53 AM 71.1 °F 69.1 °F 93% 29.90 in 7.0 mi SSW 5.8 mph - N/A Thunderstorm Overcast
7:01 AM 71.1 °F 69.1 °F 93% 29.87 in 7.0 mi SSW 8.1 mph - N/A   Overcast
7:33 AM 72.0 °F 69.1 °F 91% 29.88 in 8.0 mi SSW 9.2 mph - N/A Thunderstorm Thunderstorm
7:53 AM 62.1 °F 57.9 °F 86% 29.96 in 5.0 mi NNW 21.9 mph 32.2 mph 0.00 in Rain , Thunderstorm Thunderstorms and Rain
8:04 AM 61.0 °F 57.9 °F 90% 29.93 in 2.0 mi North 13.8 mph 26.5 mph 0.13 in Rain , Thunderstorm Heavy Thunderstorms and Rain
8:08 AM 61.0 °F 57.0 °F 87% 29.94 in 3.0 mi North 15.0 mph - 0.15 in Rain , Thunderstorm Heavy Thunderstorms and Rain
8:22 AM 61.0 °F 57.0 °F 87% 29.95 in 10.0 mi NE 13.8 mph - 0.15 in Rain , Thunderstorm Light Rain
8:32 AM 61.0 °F 57.0 °F 87% 29.94 in 10.0 mi NNE 13.8 mph - 0.15 in Rain Light Rain
8:53 AM 61.0 °F 57.0 °F 87% 29.98 in 10.0 mi NNE 13.8 mph - 0.15 in Rain Light Rain
9:53 AM 63.0 °F 55.9 °F 78% 30.02 in 10.0 mi North 9.2 mph 19.6 mph 0.00 in Rain Light Rain
10:53 AM 66.9 °F 55.0 °F 66% 30.03 in 10.0 mi NNE 12.7 mph - 0.00 in   Partly Cloudy
11:53 AM 71.1 °F 57.0 °F 61% 30.04 in 10.0 mi NE 10.4 mph - 0.00 in Rain Light Rain
12:53 PM 73.0 °F 57.9 °F 59% 30.03 in 10.0 mi Variable 5.8 mph - 0.00 in   Partly Cloudy
1:53 PM 75.0 °F 57.0 °F 53% 30.01 in 10.0 mi North 10.4 mph - N/A   Scattered Clouds
2:53 PM 77.0 °F 55.9 °F 48% 29.99 in 10.0 mi North 12.7 mph - N/A   Clear
3:53 PM 78.1 °F 55.9 °F 46% 29.97 in 10.0 mi NNE 16.1 mph 23.0 mph N/A   Clear
4:53 PM 77.0 °F 55.0 °F 47% 29.97 in 10.0 mi North 12.7 mph - N/A   Clear
5:53 PM 77.0 °F 54.0 °F 45% 29.98 in 10.0 mi North 9.2 mph - N/A   Clear
6:53 PM 73.0 °F 53.1 °F 49% 29.99 in 10.0 mi North 10.4 mph - N/A   Clear
7:53 PM 68.0 °F 53.1 °F 59% 29.99 in 10.0 mi North 8.1 mph - N/A   Clear
8:53 PM 66.9 °F 48.9 °F 52% 30.01 in 10.0 mi North 9.2 mph - N/A   Clear
9:53 PM 64.9 °F 46.9 °F 52% 30.04 in 10.0 mi North 10.4 mph - N/A   Clear
10:53 PM 64.0 °F 46.9 °F 54% 30.05 in 10.0 mi NNE 11.5 mph - N/A   Clear
11:53 PM 63.0 °F 45.0 °F 52% 30.06 in 10.0 mi North 12.7 mph - N/A   Clear